Regional Weather Roundup
Issued by NWS Northern Indiana

Home | Current Version | Previous Version | Text Only | Print | Product List | Glossary Off
Versions: 1 2 3 4 5 6 7 8 9 10 11 12 13 14 15 16 17 18 19 20 21 22 23 24 25 26 27 28 29 30 31 32 33 34 35 36 37 38 39 40 41 42 43 44 45 46 47 48 49 50

000
ASUS43 KIWX 230810
RWRIWX

KIWX WEATHER ROUNDUP
NATIONAL WEATHER SERVICE NORTHERN INDIANA
400 AM EDT SUN APR 23 2017

NOTE: "FAIR" INDICATES FEW OR NO CLOUDS BELOW 12,000 FEET WITH NO
SIGNIFICANT WEATHER AND/OR OBSTRUCTIONS TO VISIBILITY.

* THESE STATIONS ARE NOT UNDER NWS QUALITY CONTROL. THEY ALSO MAY NOT
  REPORT WEATHER SUCH AS PRECIPITATION OR FOG.

INZ001>027-230900-
NORTHERN INDIANA

CITY           SKY/WX    TMP DP  RH WIND       PRES   REMARKS
GARY*          CLEAR     38  37  96 CALM      30.13F
VALPARAISO     CLEAR     43  24  47 N3        30.12F
MICHIGAN CITY* CLEAR     32  32 100 CALM      30.12F
LAPORTE*       CLEAR     35  28  76 N3        30.13R
KNOX*          CLEAR     34  12  40 CALM      30.12S
SOUTH BEND     CLEAR     32  27  81 N3        30.13S
GOSHEN         CLEAR     38  32  79 CALM      30.11F
MONTICELLO*    CLEAR     41  30  64 NE3       30.10F
LOGANSPORT*    CLEAR     37  32  81 N3        30.11S
ROCHESTER*     CLEAR     39  32  75 CALM      30.11S
WARSAW*        CLEAR     36  34  93 CALM      30.10F
ANGOLA*        CLEAR     39  34  81 CALM      30.10F
FORT WAYNE     CLEAR     40  31  70 NE3       30.10F
HUNTINGTON*    CLEAR     40  32  74 E3        30.10F
PERU/GRISSOM   CLEAR     38  34  86 NE7       30.08F
MARION*        CLEAR     39  32  75 NE7       30.10F

$$
INZ028>050-230900-
CENTRAL INDIANA

CITY           SKY/WX    TMP DP  RH WIND       PRES   REMARKS
LAFAYETTE      CLEAR     42  31  64 NE3       30.09F
KOKOMO*        CLEAR     40  32  73 NE6       30.10F
MUNCIE*        CLEAR     37  30  75 CALM      30.08F
INDIANAPOLIS   PTCLDY    45  31  58 NE12      30.07S

$$
MIZ043>046-050>051-056>058-064>065-071>073-077>080-230900-
SOUTHWEST LOWER MICHIGAN

CITY           SKY/WX    TMP DP  RH WIND       PRES   REMARKS
BATTLE CREEK   CLEAR     38  33  82 CALM      30.11F
BENTON HARBOR  CLEAR     32  27  81 CALM      30.12S
COLDWATER*     CLEAR     37  35  90 CALM      30.11S
HILLSDALE*     CLEAR     37  34  87 CALM      30.09F
HOLLAND        CLEAR     37  33  85 CALM      30.11F
GRAND RAPIDS   CLEAR     38  36  92 CALM      30.10F
KALAMAZOO      CLEAR     36  28  73 CALM      30.11F
STURGIS*       CLEAR     36  31  82 CALM      30.11S
THREE RIVERS*  FAIR      35  32  87 CALM      30.12S

$$
OHZ001>008-015>018-024>025-230900-
NORTHWEST OHIO

CITY           SKY/WX    TMP DP  RH WIND       PRES   REMARKS
WAUSEON*       FAIR      39  36  87 CALM      30.10F
DEFIANCE       CLEAR     36  33  89 CALM      30.11F
FINDLAY        CLEAR     40  32  73 N5        30.09F
TOLEDO EXPRESS CLEAR     36  34  92 CALM      30.10F
TOLEDO METCALF CLEAR     42  32  67 NE3       30.11F
LIMA           CLEAR     38  32  79 NE3       30.09F

$$
AND FOR LAKE MICHIGAN COASTAL AND OPEN LAKE BUOY OBSERVATIONS

STATION/POSITION TEMP    WIND        PRES    VSBY  WAVE
                 AIR SEA DIR/SP/G                  HT/PER
                 (F)     (DEG/KT/KT) (MB)    (MI)  (FT/S)
CALUMET HARBOR    45     140/  2/  3 1019.3F
MICHIGAN CITY     44      CALM  /  1   N/A
BURNS HARBOR      46      90/  3/  3 1020.3F
4 MI NW BRIDGMAN  47 48  180/  2/  2 1020.6          1/ 4

$$
&&




USA.gov is the U.S. government's official web portal to all federal, state and local government web resources and services.